Time,TemperatureF,DewpointF,PressureIn,WindDirection,WindDirectionDegrees,WindSpeedMPH,WindSpeedGustMPH,Humidity,HourlyPrecipIn,Conditions,Clouds,dailyrainin,SoftwareType,DateUTC
2013-05-23 00:01:00,55.5,0.0,29.93,West,277,5.0,10.0,0,0.00,,,0.00,Weather View 32 v70,2013-05-23 07:01:00,
2013-05-23 00:06:00,56.0,0.0,29.93,SW,219,1.0,10.0,0,0.00,,,0.00,Weather View 32 v70,2013-05-23 07:06:00,
2013-05-23 00:11:00,56.1,0.0,29.93,WSW,246,3.0,10.0,0,0.00,,,0.00,Weather View 32 v70,2013-05-23 07:11:00,
2013-05-23 00:16:00,55.8,0.0,29.93,SSW,212,4.0,10.0,0,0.00,,,0.00,Weather View 32 v70,2013-05-23 07:16:00,
2013-05-23 00:21:00,54.6,0.0,29.93,SSW,207,5.0,10.0,0,0.00,,,0.00,Weather View 32 v70,2013-05-23 07:21:00,
2013-05-23 00:26:00,55.1,0.0,29.93,WSW,255,3.0,10.0,0,0.00,,,0.00,Weather View 32 v70,2013-05-23 07:26:00,
2013-05-23 00:31:00,54.5,0.0,29.93,West,271,0.0,10.0,0,0.00,,,0.00,Weather View 32 v70,2013-05-23 07:31:00,
2013-05-23 00:36:00,54.9,0.0,29.93,West,269,6.0,10.0,0,0.00,,,0.00,Weather View 32 v70,2013-05-23 07:36:00,
2013-05-23 00:41:00,54.1,0.0,29.93,WSW,252,2.0,10.0,0,0.00,,,0.00,Weather View 32 v70,2013-05-23 07:41:00,
2013-05-23 00:47:00,53.8,0.0,29.93,SW,215,6.0,10.0,0,0.00,,,0.00,Weather View 32 v70,2013-05-23 07:47:00,
2013-05-23 00:52:00,52.9,0.0,29.94,West,271,5.0,10.0,0,0.00,,,0.00,Weather View 32 v70,2013-05-23 07:52:00,
2013-05-23 00:57:00,53.1,0.0,29.94,West,264,6.0,10.0,0,0.00,,,0.00,Weather View 32 v70,2013-05-23 07:57:00,
2013-05-23 01:02:00,52.9,0.0,29.94,South,184,1.0,11.0,0,0.00,,,0.00,Weather View 32 v70,2013-05-23 08:02:00,
2013-05-23 01:07:00,53.1,0.0,29.94,SSW,198,3.0,11.0,0,0.00,,,0.00,Weather View 32 v70,2013-05-23 08:07:00,
2013-05-23 01:12:00,53.4,0.0,29.94,WSW,239,4.0,11.0,0,0.00,,,0.00,Weather View 32 v70,2013-05-23 08:12:00,
2013-05-23 01:17:00,53.5,0.0,29.95,SW,221,7.0,11.0,0,0.00,,,0.00,Weather View 32 v70,2013-05-23 08:17:00,
2013-05-23 01:22:00,52.9,0.0,29.94,SSW,200,8.0,12.0,0,0.00,,,0.00,Weather View 32 v70,2013-05-23 08:22:00,
2013-05-23 01:27:00,52.8,0.0,29.95,SW,236,3.0,13.0,0,0.00,,,0.00,Weather View 32 v70,2013-05-23 08:27:00,
2013-05-23 01:32:00,52.8,0.0,29.95,SSE,166,2.0,13.0,0,0.00,,,0.00,Weather View 32 v70,2013-05-23 08:32:00,
2013-05-23 01:37:00,53.0,0.0,29.95,SW,217,5.0,13.0,0,0.00,,,0.00,Weather View 32 v70,2013-05-23 08:37:00,
2013-05-23 01:42:00,53.0,0.0,29.95,West,269,6.0,13.0,0,0.00,,,0.00,Weather View 32 v70,2013-05-23 08:42:00,
2013-05-23 01:47:00,53.0,0.0,29.95,SSW,204,2.0,13.0,0,0.00,,,0.00,Weather View 32 v70,2013-05-23 08:47:00,
2013-05-23 01:52:00,53.0,0.0,29.95,WSW,253,3.0,13.0,0,0.00,,,0.00,Weather View 32 v70,2013-05-23 08:52:00,
2013-05-23 01:57:00,53.1,0.0,29.95,WSW,252,1.0,13.0,0,0.00,,,0.00,Weather View 32 v70,2013-05-23 08:57:00,
2013-05-23 02:02:00,53.0,0.0,29.95,SSW,205,2.0,13.0,0,0.00,,,0.00,Weather View 32 v70,2013-05-23 09:02:00,
2013-05-23 02:07:00,52.4,0.0,29.95,SW,228,3.0,13.0,0,0.00,,,0.00,Weather View 32 v70,2013-05-23 09:07:00,
2013-05-23 02:12:00,52.1,0.0,29.95,WSW,239,4.0,13.0,0,0.00,,,0.00,Weather View 32 v70,2013-05-23 09:12:00,
2013-05-23 02:17:00,52.5,0.0,29.95,SSW,197,4.0,13.0,0,0.00,,,0.00,Weather View 32 v70,2013-05-23 09:17:00,
2013-05-23 02:22:00,51.5,0.0,29.95,SW,236,7.0,13.0,0,0.00,,,0.00,Weather View 32 v70,2013-05-23 09:22:00,
2013-05-23 02:27:00,51.7,0.0,29.95,NW,322,3.0,10.0,0,0.00,,,0.00,Weather View 32 v70,2013-05-23 09:27:00,
2013-05-23 02:32:00,51.7,0.0,29.95,SW,232,2.0,10.0,0,0.00,,,0.00,Weather View 32 v70,2013-05-23 09:32:00,
2013-05-23 02:37:00,51.2,0.0,29.95,SW,225,6.0,10.0,0,0.00,,,0.00,Weather View 32 v70,2013-05-23 09:37:00,
2013-05-23 02:42:00,51.9,0.0,29.95,West,262,3.0,10.0,0,0.00,,,0.00,Weather View 32 v70,2013-05-23 09:42:00,
2013-05-23 02:47:00,51.4,0.0,29.95,SW,221,4.0,10.0,0,0.00,,,0.00,Weather View 32 v70,2013-05-23 09:47:00,
2013-05-23 02:52:00,51.2,0.0,29.95,SW,221,4.0,10.0,0,0.00,,,0.00,Weather View 32 v70,2013-05-23 09:52:00,
2013-05-23 02:57:00,50.9,0.0,29.95,SW,219,4.0,10.0,0,0.00,,,0.00,Weather View 32 v70,2013-05-23 09:57:00,
2013-05-23 03:02:00,50.9,0.0,29.95,WSW,242,3.0,9.0,0,0.00,,,0.00,Weather View 32 v70,2013-05-23 10:02:00,
2013-05-23 03:07:00,50.9,0.0,29.96,West,273,8.0,9.0,0,0.00,,,0.00,Weather View 32 v70,2013-05-23 10:07:00,
2013-05-23 03:12:00,51.8,0.0,29.96,SSW,208,0.0,9.0,0,0.00,,,0.00,Weather View 32 v70,2013-05-23 10:12:00,
2013-05-23 03:17:00,51.6,0.0,29.96,SSW,194,0.0,9.0,0,0.00,,,0.00,Weather View 32 v70,2013-05-23 10:17:00,
2013-05-23 03:22:00,51.2,0.0,29.96,SW,214,3.0,9.0,0,0.00,,,0.00,Weather View 32 v70,2013-05-23 10:22:00,
2013-05-23 03:27:00,50.5,0.0,29.96,SW,221,3.0,9.0,0,0.00,,,0.00,Weather View 32 v70,2013-05-23 10:27:00,
2013-05-23 03:32:00,50.6,0.0,29.96,SW,222,2.0,9.0,0,0.00,,,0.00,Weather View 32 v70,2013-05-23 10:32:00,
2013-05-23 03:37:00,49.4,0.0,29.96,WSW,249,4.0,9.0,0,0.00,,,0.00,Weather View 32 v70,2013-05-23 10:37:00,
2013-05-23 03:42:00,50.2,0.0,29.96,WSW,249,1.0,9.0,0,0.00,,,0.00,Weather View 32 v70,2013-05-23 10:42:00,
2013-05-23 03:47:00,50.3,0.0,29.96,SSE,150,2.0,9.0,0,0.00,,,0.00,Weather View 32 v70,2013-05-23 10:47:00,
2013-05-23 03:52:00,51.0,0.0,29.97,SSW,198,0.0,9.0,0,0.00,,,0.00,Weather View 32 v70,2013-05-23 10:52:00,
2013-05-23 03:57:00,50.7,0.0,29.97,WSW,245,0.0,9.0,0,0.00,,,0.00,Weather View 32 v70,2013-05-23 10:57:00,
2013-05-23 04:02:00,50.7,0.0,29.97,West,264,3.0,9.0,0,0.00,,,0.00,Weather View 32 v70,2013-05-23 11:02:00,
2013-05-23 04:07:00,50.1,0.0,29.97,WNW,283,4.0,9.0,0,0.00,,,0.00,Weather View 32 v70,2013-05-23 11:07:00,
2013-05-23 04:12:00,50.5,0.0,29.97,WSW,245,4.0,9.0,0,0.00,,,0.00,Weather View 32 v70,2013-05-23 11:12:00,
2013-05-23 04:17:00,50.7,0.0,29.97,West,259,4.0,9.0,0,0.00,,,0.00,Weather View 32 v70,2013-05-23 11:17:00,
2013-05-23 04:22:00,50.2,0.0,29.97,SW,222,6.0,9.0,0,0.00,,,0.00,Weather View 32 v70,2013-05-23 11:22:00,
2013-05-23 04:27:00,51.0,0.0,29.98,West,270,0.0,9.0,0,0.00,,,0.00,Weather View 32 v70,2013-05-23 11:27:00,
2013-05-23 04:32:00,50.6,0.0,29.98,SSW,204,4.0,9.0,0,0.00,,,0.00,Weather View 32 v70,2013-05-23 11:32:00,
2013-05-23 04:37:00,50.4,0.0,29.98,SW,229,1.0,9.0,0,0.00,,,0.00,Weather View 32 v70,2013-05-23 11:37:00,
2013-05-23 04:42:00,50.2,0.0,29.98,SW,232,2.0,9.0,0,0.00,,,0.00,Weather View 32 v70,2013-05-23 11:42:00,
2013-05-23 04:47:00,50.0,0.0,29.98,WSW,245,3.0,9.0,0,0.00,,,0.00,Weather View 32 v70,2013-05-23 11:47:00,
2013-05-23 04:52:00,51.1,0.0,29.98,WSW,239,0.0,9.0,0,0.00,,,0.00,Weather View 32 v70,2013-05-23 11:52:00,
2013-05-23 04:57:00,49.8,0.0,29.98,SW,222,0.0,9.0,0,0.00,,,0.00,Weather View 32 v70,2013-05-23 11:57:00,
2013-05-23 05:02:00,49.5,0.0,29.98,WSW,257,0.0,9.0,0,0.00,,,0.00,Weather View 32 v70,2013-05-23 12:02:00,
2013-05-23 05:07:00,49.9,0.0,29.98,South,176,0.0,9.0,0,0.00,,,0.00,Weather View 32 v70,2013-05-23 12:07:00,
2013-05-23 05:12:00,49.7,0.0,29.98,SW,226,1.0,8.0,0,0.00,,,0.00,Weather View 32 v70,2013-05-23 12:12:00,
2013-05-23 05:17:00,49.6,0.0,29.98,WSW,250,2.0,8.0,0,0.00,,,0.00,Weather View 32 v70,2013-05-23 12:17:00,
2013-05-23 05:22:00,49.4,0.0,29.98,SW,228,2.0,8.0,0,0.00,,,0.00,Weather View 32 v70,2013-05-23 12:22:00,
2013-05-23 05:27:00,49.2,0.0,29.98,SW,224,0.0,7.0,0,0.00,,,0.00,Weather View 32 v70,2013-05-23 12:27:00,
2013-05-23 05:32:00,49.1,0.0,29.98,WNW,287,0.0,7.0,0,0.00,,,0.00,Weather View 32 v70,2013-05-23 12:32:00,
2013-05-23 05:37:00,49.4,0.0,29.98,SW,228,0.0,7.0,0,0.00,,,0.00,Weather View 32 v70,2013-05-23 12:37:00,
2013-05-23 05:42:00,48.1,0.0,29.98,WNW,283,0.0,5.0,0,0.00,,,0.00,Weather View 32 v70,2013-05-23 12:42:00,
2013-05-23 05:47:00,47.9,0.0,29.98,West,278,0.0,5.0,0,0.00,,,0.00,Weather View 32 v70,2013-05-23 12:47:00,
2013-05-23 05:52:00,48.3,0.0,29.98,WSW,245,3.0,5.0,0,0.00,,,0.00,Weather View 32 v70,2013-05-23 12:52:00,
2013-05-23 05:57:00,48.7,0.0,29.98,SW,236,0.0,5.0,0,0.00,,,0.00,Weather View 32 v70,2013-05-23 12:57:00,
2013-05-23 06:02:00,48.4,0.0,29.98,SW,236,2.0,5.0,0,0.00,,,0.00,Weather View 32 v70,2013-05-23 13:02:00,
2013-05-23 06:07:00,49.3,0.0,29.98,WSW,255,2.0,6.0,0,0.00,,,0.00,Weather View 32 v70,2013-05-23 13:07:00,
2013-05-23 06:12:00,48.8,0.0,29.98,West,267,3.0,6.0,0,0.00,,,0.00,Weather View 32 v70,2013-05-23 13:12:00,
2013-05-23 06:17:00,49.0,0.0,29.98,West,262,6.0,6.0,0,0.00,,,0.00,Weather View 32 v70,2013-05-23 13:17:00,
2013-05-23 06:22:00,49.5,0.0,29.98,West,269,3.0,7.0,0,0.00,,,0.00,Weather View 32 v70,2013-05-23 13:22:00,
2013-05-23 06:27:00,49.6,0.0,29.98,SW,232,2.0,7.0,0,0.00,,,0.00,Weather View 32 v70,2013-05-23 13:27:00,
2013-05-23 06:32:00,50.0,0.0,29.98,WSW,242,3.0,7.0,0,0.00,,,0.00,Weather View 32 v70,2013-05-23 13:32:00,
2013-05-23 06:37:00,50.2,0.0,29.98,WNW,284,1.0,7.0,0,0.00,,,0.00,Weather View 32 v70,2013-05-23 13:37:00,
2013-05-23 06:42:00,50.2,0.0,29.99,South,170,0.0,7.0,0,0.00,,,0.00,Weather View 32 v70,2013-05-23 13:42:00,
2013-05-23 06:47:00,50.6,0.0,29.98,WSW,239,2.0,7.0,0,0.00,,,0.00,Weather View 32 v70,2013-05-23 13:47:00,
2013-05-23 06:52:00,51.1,0.0,29.98,SW,233,3.0,7.0,0,0.00,,,0.00,Weather View 32 v70,2013-05-23 13:52:00,
2013-05-23 06:57:00,51.4,0.0,29.98,WSW,256,2.0,7.0,0,0.00,,,0.00,Weather View 32 v70,2013-05-23 13:57:00,
2013-05-23 07:02:00,51.9,0.0,29.99,SW,224,3.0,7.0,0,0.00,,,0.00,Weather View 32 v70,2013-05-23 14:02:00,
2013-05-23 07:07:00,52.1,0.0,29.99,WSW,250,3.0,7.0,0,0.00,,,0.00,Weather View 32 v70,2013-05-23 14:07:00,
2013-05-23 07:12:00,52.4,0.0,29.99,WNW,290,2.0,7.0,0,0.00,,,0.00,Weather View 32 v70,2013-05-23 14:12:00,
2013-05-23 07:17:00,52.8,0.0,29.99,WNW,293,2.0,7.0,0,0.00,,,0.00,Weather View 32 v70,2013-05-23 14:17:00,
2013-05-23 07:22:00,53.0,0.0,29.99,WNW,288,3.0,7.0,0,0.00,,,0.00,Weather View 32 v70,2013-05-23 14:22:00,
2013-05-23 07:27:00,53.6,0.0,29.99,SW,228,2.0,7.0,0,0.00,,,0.00,Weather View 32 v70,2013-05-23 14:27:00,
2013-05-23 07:32:00,54.1,0.0,29.99,West,262,1.0,7.0,0,0.00,,,0.00,Weather View 32 v70,2013-05-23 14:32:00,
2013-05-23 07:37:00,54.1,0.0,29.99,West,276,3.0,8.0,0,0.00,,,0.00,Weather View 32 v70,2013-05-23 14:37:00,
2013-05-23 07:42:00,54.5,0.0,29.99,NW,309,3.0,13.0,0,0.00,,,0.00,Weather View 32 v70,2013-05-23 14:42:00,
2013-05-23 07:47:00,54.6,0.0,29.99,West,278,7.0,13.0,0,0.00,,,0.00,Weather View 32 v70,2013-05-23 14:47:00,
2013-05-23 07:52:00,55.0,0.0,29.99,West,262,2.0,13.0,0,0.00,,,0.00,Weather View 32 v70,2013-05-23 14:52:00,
2013-05-23 07:57:00,55.2,0.0,29.99,West,281,5.0,13.0,0,0.00,,,0.00,Weather View 32 v70,2013-05-23 14:57:00,
2013-05-23 08:02:00,56.3,0.0,29.99,West,273,7.0,13.0,0,0.00,,,0.00,Weather View 32 v70,2013-05-23 15:02:00,
2013-05-23 08:07:00,56.2,0.0,30.00,WSW,256,5.0,13.0,0,0.00,,,0.00,Weather View 32 v70,2013-05-23 15:07:00,
2013-05-23 08:12:00,56.8,0.0,30.00,WSW,245,6.0,13.0,0,0.00,,,0.00,Weather View 32 v70,2013-05-23 15:12:00,
2013-05-23 08:17:00,57.4,0.0,30.00,NW,307,1.0,13.0,0,0.00,,,0.00,Weather View 32 v70,2013-05-23 15:17:00,
2013-05-23 08:22:00,58.5,0.0,30.00,WSW,252,3.0,13.0,0,0.00,,,0.00,Weather View 32 v70,2013-05-23 15:22:00,
2013-05-23 08:27:00,58.3,0.0,30.00,SW,221,2.0,13.0,0,0.00,,,0.00,Weather View 32 v70,2013-05-23 15:27:00,
2013-05-23 08:32:00,59.3,0.0,30.00,West,264,0.0,13.0,0,0.00,,,0.00,Weather View 32 v70,2013-05-23 15:32:00,
2013-05-23 08:37:00,59.4,0.0,30.01,WNW,291,3.0,13.0,0,0.00,,,0.00,Weather View 32 v70,2013-05-23 15:37:00,
2013-05-23 08:42:00,59.8,0.0,30.01,NW,325,2.0,10.0,0,0.00,,,0.00,Weather View 32 v70,2013-05-23 15:42:00,
2013-05-23 08:47:00,60.1,0.0,30.01,WNW,295,3.0,10.0,0,0.00,,,0.00,Weather View 32 v70,2013-05-23 15:47:00,
2013-05-23 08:52:00,60.2,0.0,30.01,SW,222,4.0,10.0,0,0.00,,,0.00,Weather View 32 v70,2013-05-23 15:52:00,
2013-05-23 08:57:00,61.1,0.0,30.01,SSW,208,0.0,10.0,0,0.00,,,0.00,Weather View 32 v70,2013-05-23 15:57:00,
2013-05-23 09:02:00,61.0,0.0,30.01,West,264,6.0,10.0,0,0.00,,,0.00,Weather View 32 v70,2013-05-23 16:02:00,
2013-05-23 09:07:00,61.2,0.0,30.01,SW,224,1.0,9.0,0,0.00,,,0.00,Weather View 32 v70,2013-05-23 16:07:00,
2013-05-23 09:12:00,60.0,0.0,30.02,SSW,194,4.0,9.0,0,0.00,,,0.00,Weather View 32 v70,2013-05-23 16:12:00,
2013-05-23 09:17:00,60.6,0.0,30.01,West,264,5.0,9.0,0,0.00,,,0.00,Weather View 32 v70,2013-05-23 16:17:00,
2013-05-23 09:22:00,60.9,0.0,30.02,SSE,155,5.0,9.0,0,0.00,,,0.00,Weather View 32 v70,2013-05-23 16:22:00,
2013-05-23 09:27:00,61.1,0.0,30.02,SE,139,5.0,9.0,0,0.00,,,0.00,Weather View 32 v70,2013-05-23 16:27:00,
2013-05-23 09:32:00,61.9,0.0,30.01,SSW,205,5.0,9.0,0,0.00,,,0.00,Weather View 32 v70,2013-05-23 16:32:00,
2013-05-23 09:37:00,62.4,0.0,30.02,SE,127,2.0,10.0,0,0.00,,,0.00,Weather View 32 v70,2013-05-23 16:37:00,
2013-05-23 09:42:00,62.3,0.0,30.02,SW,226,6.0,10.0,0,0.00,,,0.00,Weather View 32 v70,2013-05-23 16:42:00,
2013-05-23 09:47:00,63.0,0.0,30.02,SW,219,3.0,10.0,0,0.00,,,0.00,Weather View 32 v70,2013-05-23 16:47:00,
2013-05-23 09:52:00,63.0,0.0,30.02,SSW,204,6.0,10.0,0,0.00,,,0.00,Weather View 32 v70,2013-05-23 16:52:00,
2013-05-23 09:57:00,63.9,0.0,30.02,SE,143,5.0,10.0,0,0.00,,,0.00,Weather View 32 v70,2013-05-23 16:57:00,
2013-05-23 10:02:00,62.8,0.0,30.02,SSW,203,2.0,10.0,0,0.00,,,0.00,Weather View 32 v70,2013-05-23 17:02:00,
2013-05-23 10:07:00,63.4,0.0,30.02,SW,214,2.0,10.0,0,0.00,,,0.00,Weather View 32 v70,2013-05-23 17:07:00,
2013-05-23 10:12:00,64.1,0.0,30.02,South,191,5.0,10.0,0,0.00,,,0.00,Weather View 32 v70,2013-05-23 17:12:00,
2013-05-23 10:17:00,64.0,0.0,30.02,South,174,3.0,10.0,0,0.00,,,0.00,Weather View 32 v70,2013-05-23 17:17:00,
2013-05-23 10:22:00,64.6,0.0,30.02,WSW,243,1.0,10.0,0,0.00,,,0.00,Weather View 32 v70,2013-05-23 17:22:00,
2013-05-23 10:27:00,64.6,0.0,30.02,SSW,205,6.0,10.0,0,0.00,,,0.00,Weather View 32 v70,2013-05-23 17:27:00,
2013-05-23 10:32:00,65.1,0.0,30.02,SW,221,3.0,10.0,0,0.00,,,0.00,Weather View 32 v70,2013-05-23 17:32:00,
2013-05-23 10:37:00,65.0,0.0,30.02,SSW,204,3.0,11.0,0,0.00,,,0.00,Weather View 32 v70,2013-05-23 17:37:00,
2013-05-23 10:42:00,65.4,0.0,30.02,SSW,208,4.0,11.0,0,0.00,,,0.00,Weather View 32 v70,2013-05-23 17:42:00,
2013-05-23 10:47:00,66.4,0.0,30.02,South,190,2.0,11.0,0,0.00,,,0.00,Weather View 32 v70,2013-05-23 17:47:00,
2013-05-23 10:52:00,66.8,0.0,30.02,SW,225,4.0,11.0,0,0.00,,,0.00,Weather View 32 v70,2013-05-23 17:52:00,
2013-05-23 10:57:00,66.8,0.0,30.02,South,176,4.0,11.0,0,0.00,,,0.00,Weather View 32 v70,2013-05-23 17:57:00,
2013-05-23 11:02:00,67.2,0.0,30.02,SSE,156,4.0,11.0,0,0.00,,,0.00,Weather View 32 v70,2013-05-23 18:02:00,
2013-05-23 11:07:00,67.3,0.0,30.02,SW,231,7.0,11.0,0,0.00,,,0.00,Weather View 32 v70,2013-05-23 18:07:00,
2013-05-23 11:12:00,67.4,0.0,30.02,SW,215,4.0,11.0,0,0.00,,,0.00,Weather View 32 v70,2013-05-23 18:12:00,
2013-05-23 11:17:00,66.8,0.0,30.02,SSW,208,3.0,11.0,0,0.00,,,0.00,Weather View 32 v70,2013-05-23 18:17:00,
2013-05-23 11:22:00,68.0,0.0,30.02,ESE,114,5.0,11.0,0,0.00,,,0.00,Weather View 32 v70,2013-05-23 18:22:00,
2013-05-23 11:27:00,67.5,0.0,30.02,SSW,193,4.0,11.0,0,0.00,,,0.00,Weather View 32 v70,2013-05-23 18:27:00,
2013-05-23 11:32:00,67.9,0.0,30.03,SSW,211,5.0,11.0,0,0.00,,,0.00,Weather View 32 v70,2013-05-23 18:32:00,
2013-05-23 11:37:00,68.1,0.0,30.03,ESE,104,0.0,10.0,0,0.00,,,0.00,Weather View 32 v70,2013-05-23 18:37:00,
2013-05-23 11:42:00,69.8,0.0,30.03,WSW,242,2.0,13.0,0,0.00,,,0.00,Weather View 32 v70,2013-05-23 18:42:00,
2013-05-23 11:47:00,69.9,0.0,30.03,SW,224,3.0,13.0,0,0.00,,,0.00,Weather View 32 v70,2013-05-23 18:47:00,
2013-05-23 11:52:00,70.6,0.0,30.03,SSW,208,5.0,13.0,0,0.00,,,0.00,Weather View 32 v70,2013-05-23 18:52:00,
2013-05-23 11:57:00,70.2,0.0,30.03,ESE,115,2.0,13.0,0,0.00,,,0.00,Weather View 32 v70,2013-05-23 18:57:00,
2013-05-23 12:02:00,71.0,0.0,30.03,SW,224,3.0,13.0,0,0.00,,,0.00,Weather View 32 v70,2013-05-23 19:02:00,
2013-05-23 12:07:00,70.9,0.0,30.03,SSW,210,3.0,13.0,0,0.00,,,0.00,Weather View 32 v70,2013-05-23 19:07:00,
2013-05-23 12:12:00,69.6,0.0,30.03,SSE,152,5.0,13.0,0,0.00,,,0.00,Weather View 32 v70,2013-05-23 19:12:00,
2013-05-23 12:17:00,69.7,0.0,30.03,ESE,117,6.0,13.0,0,0.00,,,0.00,Weather View 32 v70,2013-05-23 19:17:00,
2013-05-23 12:22:00,70.6,0.0,30.03,West,260,2.0,13.0,0,0.00,,,0.00,Weather View 32 v70,2013-05-23 19:22:00,
2013-05-23 12:27:00,71.9,0.0,30.03,SW,224,1.0,13.0,0,0.00,,,0.00,Weather View 32 v70,2013-05-23 19:27:00,
2013-05-23 12:32:00,73.0,0.0,30.03,South,186,6.0,13.0,0,0.00,,,0.00,Weather View 32 v70,2013-05-23 19:32:00,
2013-05-23 12:37:00,71.2,0.0,30.03,South,184,1.0,13.0,0,0.00,,,0.00,Weather View 32 v70,2013-05-23 19:37:00,
2013-05-23 12:42:00,71.8,0.0,30.02,South,190,1.0,10.0,0,0.00,,,0.00,Weather View 32 v70,2013-05-23 19:42:00,
2013-05-23 12:47:00,73.0,0.0,30.02,WNW,291,5.0,10.0,0,0.00,,,0.00,Weather View 32 v70,2013-05-23 19:47:00,
2013-05-23 12:52:00,74.2,0.0,30.02,West,276,4.0,10.0,0,0.00,,,0.00,Weather View 32 v70,2013-05-23 19:52:00,
2013-05-23 12:57:00,73.4,0.0,30.02,West,274,6.0,10.0,0,0.00,,,0.00,Weather View 32 v70,2013-05-23 19:57:00,
2013-05-23 13:02:00,73.1,0.0,30.02,SSW,195,0.0,12.0,0,0.00,,,0.00,Weather View 32 v70,2013-05-23 20:02:00,
2013-05-23 13:07:00,73.6,0.0,30.02,SW,226,3.0,12.0,0,0.00,,,0.00,Weather View 32 v70,2013-05-23 20:07:00,
2013-05-23 13:12:00,74.0,0.0,30.02,South,176,1.0,12.0,0,0.00,,,0.00,Weather View 32 v70,2013-05-23 20:12:00,
2013-05-23 13:17:00,72.5,0.0,30.02,South,172,3.0,12.0,0,0.00,,,0.00,Weather View 32 v70,2013-05-23 20:17:00,
2013-05-23 13:22:00,74.0,0.0,30.02,South,188,3.0,12.0,0,0.00,,,0.00,Weather View 32 v70,2013-05-23 20:22:00,
2013-05-23 13:27:00,75.8,0.0,30.02,WSW,246,0.0,12.0,0,0.00,,,0.00,Weather View 32 v70,2013-05-23 20:27:00,
2013-05-23 13:32:00,73.6,0.0,30.02,SW,219,6.0,12.0,0,0.00,,,0.00,Weather View 32 v70,2013-05-23 20:32:00,
2013-05-23 13:37:00,76.0,0.0,30.02,North,349,1.0,12.0,0,0.00,,,0.00,Weather View 32 v70,2013-05-23 20:37:00,
2013-05-23 13:42:00,76.2,0.0,30.02,SW,219,4.0,12.0,0,0.00,,,0.00,Weather View 32 v70,2013-05-23 20:42:00,
2013-05-23 13:47:00,74.7,0.0,30.02,WSW,239,2.0,12.0,0,0.00,,,0.00,Weather View 32 v70,2013-05-23 20:47:00,
2013-05-23 13:52:00,73.8,0.0,30.01,SSW,193,4.0,12.0,0,0.00,,,0.00,Weather View 32 v70,2013-05-23 20:52:00,
2013-05-23 13:57:00,76.2,0.0,30.01,SW,231,4.0,12.0,0,0.00,,,0.00,Weather View 32 v70,2013-05-23 20:57:00,
2013-05-23 14:02:00,76.4,0.0,30.01,SSW,194,0.0,12.0,0,0.00,,,0.00,Weather View 32 v70,2013-05-23 21:02:00,
2013-05-23 14:07:00,76.8,0.0,30.01,SW,229,7.0,12.0,0,0.00,,,0.00,Weather View 32 v70,2013-05-23 21:07:00,
2013-05-23 14:12:00,75.9,0.0,30.01,East,91,3.0,12.0,0,0.00,,,0.00,Weather View 32 v70,2013-05-23 21:12:00,
2013-05-23 14:17:00,78.2,0.0,30.01,West,260,0.0,12.0,0,0.00,,,0.00,Weather View 32 v70,2013-05-23 21:17:00,
2013-05-23 14:22:00,77.2,0.0,30.01,WSW,249,2.0,12.0,0,0.00,,,0.00,Weather View 32 v70,2013-05-23 21:22:00,
2013-05-23 14:27:00,76.7,0.0,30.01,SW,222,8.0,12.0,0,0.00,,,0.00,Weather View 32 v70,2013-05-23 21:27:00,
2013-05-23 14:32:00,74.0,0.0,30.01,SSE,158,5.0,12.0,0,0.00,,,0.00,Weather View 32 v70,2013-05-23 21:32:00,
2013-05-23 14:37:00,74.5,0.0,30.01,WSW,256,3.0,12.0,0,0.00,,,0.00,Weather View 32 v70,2013-05-23 21:37:00,
2013-05-23 14:42:00,74.2,0.0,30.01,West,270,6.0,12.0,0,0.00,,,0.00,Weather View 32 v70,2013-05-23 21:42:00,
2013-05-23 14:47:00,74.1,0.0,30.01,WSW,249,7.0,12.0,0,0.00,,,0.00,Weather View 32 v70,2013-05-23 21:47:00,
2013-05-23 14:52:00,75.3,0.0,30.01,South,180,8.0,12.0,0,0.00,,,0.00,Weather View 32 v70,2013-05-23 21:52:00,
2013-05-23 14:57:00,75.9,0.0,30.01,South,183,6.0,12.0,0,0.00,,,0.00,Weather View 32 v70,2013-05-23 21:57:00,
2013-05-23 15:02:00,77.0,0.0,30.01,West,271,6.0,10.0,0,0.00,,,0.00,Weather View 32 v70,2013-05-23 22:02:00,
2013-05-23 15:07:00,77.4,0.0,30.00,SW,224,2.0,10.0,0,0.00,,,0.00,Weather View 32 v70,2013-05-23 22:07:00,
2013-05-23 15:12:00,78.4,0.0,30.00,SE,128,1.0,10.0,0,0.00,,,0.00,Weather View 32 v70,2013-05-23 22:12:00,
2013-05-23 15:17:00,78.2,0.0,30.00,SSW,211,4.0,10.0,0,0.00,,,0.00,Weather View 32 v70,2013-05-23 22:17:00,
2013-05-23 15:22:00,76.4,0.0,30.00,South,190,3.0,11.0,0,0.00,,,0.00,Weather View 32 v70,2013-05-23 22:22:00,
2013-05-23 15:27:00,74.2,0.0,30.00,SW,231,8.0,11.0,0,0.00,,,0.00,Weather View 32 v70,2013-05-23 22:27:00,
2013-05-23 15:32:00,74.1,0.0,30.00,West,266,4.0,11.0,0,0.00,,,0.00,Weather View 32 v70,2013-05-23 22:32:00,
2013-05-23 15:37:00,73.8,0.0,30.00,SSW,195,3.0,11.0,0,0.00,,,0.00,Weather View 32 v70,2013-05-23 22:37:00,
2013-05-23 15:42:00,73.8,0.0,30.00,SW,214,7.0,12.0,0,0.00,,,0.00,Weather View 32 v70,2013-05-23 22:42:00,
2013-05-23 15:47:00,74.1,0.0,30.00,SW,229,4.0,12.0,0,0.00,,,0.00,Weather View 32 v70,2013-05-23 22:47:00,
2013-05-23 15:52:00,75.1,0.0,30.00,WSW,246,5.0,12.0,0,0.00,,,0.00,Weather View 32 v70,2013-05-23 22:52:00,
2013-05-23 15:57:00,75.9,0.0,30.00,West,277,6.0,13.0,0,0.00,,,0.00,Weather View 32 v70,2013-05-23 22:57:00,
2013-05-23 16:02:00,75.0,0.0,30.00,WNW,290,6.0,13.0,0,0.00,,,0.00,Weather View 32 v70,2013-05-23 23:02:00,
2013-05-23 16:07:00,75.1,0.0,30.00,WSW,250,6.0,13.0,0,0.00,,,0.00,Weather View 32 v70,2013-05-23 23:07:00,
2013-05-23 16:12:00,76.4,0.0,30.00,WSW,255,7.0,13.0,0,0.00,,,0.00,Weather View 32 v70,2013-05-23 23:12:00,
2013-05-23 16:17:00,75.6,0.0,30.00,West,266,8.0,16.0,0,0.00,,,0.00,Weather View 32 v70,2013-05-23 23:17:00,
2013-05-23 16:22:00,75.9,0.0,30.00,West,281,4.0,16.0,0,0.00,,,0.00,Weather View 32 v70,2013-05-23 23:22:00,
2013-05-23 16:27:00,75.1,0.0,29.99,SW,217,3.0,16.0,0,0.00,,,0.00,Weather View 32 v70,2013-05-23 23:27:00,
2013-05-23 16:32:00,76.2,0.0,30.00,West,260,3.0,16.0,0,0.00,,,0.00,Weather View 32 v70,2013-05-23 23:32:00,
2013-05-23 16:37:00,75.7,0.0,29.99,West,273,5.0,16.0,0,0.00,,,0.00,Weather View 32 v70,2013-05-23 23:37:00,
2013-05-23 16:42:00,76.0,0.0,29.99,West,277,4.0,16.0,0,0.00,,,0.00,Weather View 32 v70,2013-05-23 23:42:00,
2013-05-23 16:47:00,75.7,0.0,29.99,WSW,257,6.0,16.0,0,0.00,,,0.00,Weather View 32 v70,2013-05-23 23:47:00,
2013-05-23 16:52:00,76.0,0.0,29.99,WSW,250,5.0,16.0,0,0.00,,,0.00,Weather View 32 v70,2013-05-23 23:52:00,
2013-05-23 16:57:00,76.1,0.0,29.99,West,260,3.0,16.0,0,0.00,,,0.00,Weather View 32 v70,2013-05-23 23:57:00,
2013-05-23 17:02:00,74.9,0.0,29.98,WSW,256,2.0,16.0,0,0.00,,,0.00,Weather View 32 v70,2013-05-24 00:02:00,
2013-05-23 17:07:00,75.2,0.0,29.98,SSW,205,5.0,16.0,0,0.00,,,0.00,Weather View 32 v70,2013-05-24 00:07:00,
2013-05-23 17:12:00,76.3,0.0,29.98,WNW,298,3.0,16.0,0,0.00,,,0.00,Weather View 32 v70,2013-05-24 00:12:00,
2013-05-23 17:17:00,75.6,0.0,29.98,WSW,246,4.0,12.0,0,0.00,,,0.00,Weather View 32 v70,2013-05-24 00:17:00,
2013-05-23 17:22:00,73.8,0.0,29.98,SSE,162,4.0,12.0,0,0.00,,,0.00,Weather View 32 v70,2013-05-24 00:22:00,
2013-05-23 17:27:00,74.9,0.0,29.98,SW,222,0.0,12.0,0,0.00,,,0.00,Weather View 32 v70,2013-05-24 00:27:00,
2013-05-23 17:32:00,74.3,0.0,29.98,West,271,6.0,12.0,0,0.00,,,0.00,Weather View 32 v70,2013-05-24 00:32:00,
2013-05-23 17:37:00,73.4,0.0,29.98,WSW,238,10.0,12.0,0,0.00,,,0.00,Weather View 32 v70,2013-05-24 00:37:00,
2013-05-23 17:42:00,74.1,0.0,29.98,SW,218,9.0,13.0,0,0.00,,,0.00,Weather View 32 v70,2013-05-24 00:42:00,
2013-05-23 17:47:00,74.3,0.0,29.98,SW,233,5.0,13.0,0,0.00,,,0.00,Weather View 32 v70,2013-05-24 00:47:00,
2013-05-23 17:52:00,74.1,0.0,29.98,SW,232,8.0,13.0,0,0.00,,,0.00,Weather View 32 v70,2013-05-24 00:52:00,
2013-05-23 17:57:00,73.7,0.0,29.98,South,184,6.0,13.0,0,0.00,,,0.00,Weather View 32 v70,2013-05-24 00:57:00,
2013-05-23 18:02:00,73.1,0.0,29.97,South,173,3.0,13.0,0,0.00,,,0.00,Weather View 32 v70,2013-05-24 01:02:00,
2013-05-23 18:07:00,73.2,0.0,29.97,SSW,203,4.0,13.0,0,0.00,,,0.00,Weather View 32 v70,2013-05-24 01:07:00,
2013-05-23 18:12:00,73.2,0.0,29.97,West,264,9.0,13.0,0,0.00,,,0.00,Weather View 32 v70,2013-05-24 01:12:00,
2013-05-23 18:17:00,73.1,0.0,29.97,WSW,239,5.0,13.0,0,0.00,,,0.00,Weather View 32 v70,2013-05-24 01:17:00,
2013-05-23 18:22:00,73.0,0.0,29.97,WSW,238,4.0,13.0,0,0.00,,,0.00,Weather View 32 v70,2013-05-24 01:22:00,
2013-05-23 18:27:00,72.5,0.0,29.97,SW,233,7.0,13.0,0,0.00,,,0.00,Weather View 32 v70,2013-05-24 01:27:00,
2013-05-23 18:33:00,72.4,0.0,29.97,WNW,287,6.0,13.0,0,0.00,,,0.00,Weather View 32 v70,2013-05-24 01:33:00,
2013-05-23 18:38:00,71.5,0.0,29.97,SW,217,9.0,13.0,0,0.00,,,0.00,Weather View 32 v70,2013-05-24 01:38:00,
2013-05-23 18:43:00,70.6,0.0,29.97,WSW,239,9.0,14.0,0,0.00,,,0.00,Weather View 32 v70,2013-05-24 01:43:00,
2013-05-23 18:48:00,70.5,0.0,29.97,SW,229,5.0,16.0,0,0.00,,,0.00,Weather View 32 v70,2013-05-24 01:48:00,
2013-05-23 18:53:00,70.4,0.0,29.97,South,172,6.0,16.0,0,0.00,,,0.00,Weather View 32 v70,2013-05-24 01:53:00,
2013-05-23 18:58:00,70.2,0.0,29.97,West,278,6.0,16.0,0,0.00,,,0.00,Weather View 32 v70,2013-05-24 01:58:00,
2013-05-23 19:03:00,70.0,0.0,29.97,SW,222,5.0,16.0,0,0.00,,,0.00,Weather View 32 v70,2013-05-24 02:03:00,
2013-05-23 19:08:00,69.2,0.0,29.98,South,177,4.0,16.0,0,0.00,,,0.00,Weather View 32 v70,2013-05-24 02:08:00,
2013-05-23 19:13:00,69.1,0.0,29.98,SW,224,9.0,17.0,0,0.00,,,0.00,Weather View 32 v70,2013-05-24 02:13:00,
2013-05-23 19:18:00,68.7,0.0,29.98,SW,221,3.0,17.0,0,0.00,,,0.00,Weather View 32 v70,2013-05-24 02:18:00,
2013-05-23 19:23:00,67.9,0.0,29.98,West,277,7.0,17.0,0,0.00,,,0.00,Weather View 32 v70,2013-05-24 02:23:00,
2013-05-23 19:28:00,67.6,0.0,29.98,West,266,6.0,17.0,0,0.00,,,0.00,Weather View 32 v70,2013-05-24 02:28:00,
2013-05-23 19:33:00,67.5,0.0,29.98,West,263,5.0,17.0,0,0.00,,,0.00,Weather View 32 v70,2013-05-24 02:33:00,
2013-05-23 19:38:00,67.3,0.0,29.98,WSW,255,3.0,17.0,0,0.00,,,0.00,Weather View 32 v70,2013-05-24 02:38:00,
2013-05-23 19:43:00,67.2,0.0,29.98,West,269,7.0,17.0,0,0.00,,,0.00,Weather View 32 v70,2013-05-24 02:43:00,
2013-05-23 19:48:00,67.1,0.0,29.98,WSW,243,1.0,17.0,0,0.00,,,0.00,Weather View 32 v70,2013-05-24 02:48:00,
2013-05-23 19:53:00,66.6,0.0,29.98,SW,225,4.0,17.0,0,0.00,,,0.00,Weather View 32 v70,2013-05-24 02:53:00,
2013-05-23 19:58:00,66.2,0.0,29.98,SE,142,0.0,17.0,0,0.00,,,0.00,Weather View 32 v70,2013-05-24 02:58:00,
2013-05-23 20:03:00,66.1,0.0,29.98,WSW,248,2.0,17.0,0,0.00,,,0.00,Weather View 32 v70,2013-05-24 03:03:00,
2013-05-23 20:08:00,65.9,0.0,29.98,South,188,1.0,17.0,0,0.00,,,0.00,Weather View 32 v70,2013-05-24 03:08:00,
2013-05-23 20:13:00,65.7,0.0,29.98,WSW,245,4.0,17.0,0,0.00,,,0.00,Weather View 32 v70,2013-05-24 03:13:00,
2013-05-23 20:18:00,65.4,0.0,29.98,SW,231,2.0,16.0,0,0.00,,,0.00,Weather View 32 v70,2013-05-24 03:18:00,
2013-05-23 20:23:00,65.4,0.0,29.98,WSW,248,4.0,14.0,0,0.00,,,0.00,Weather View 32 v70,2013-05-24 03:23:00,
2013-05-23 20:28:00,65.2,0.0,29.98,SW,228,4.0,11.0,0,0.00,,,0.00,Weather View 32 v70,2013-05-24 03:28:00,
2013-05-23 20:33:00,65.2,0.0,29.98,SW,232,3.0,10.0,0,0.00,,,0.00,Weather View 32 v70,2013-05-24 03:33:00,
2013-05-23 20:38:00,65.6,0.0,29.98,West,271,8.0,11.0,0,0.00,,,0.00,Weather View 32 v70,2013-05-24 03:38:00,
2013-05-23 20:43:00,65.3,0.0,29.98,West,280,7.0,11.0,0,0.00,,,0.00,Weather View 32 v70,2013-05-24 03:43:00,
2013-05-23 20:48:00,65.0,0.0,29.98,West,264,5.0,11.0,0,0.00,,,0.00,Weather View 32 v70,2013-05-24 03:48:00,
2013-05-23 20:53:00,64.9,0.0,29.98,West,264,3.0,11.0,0,0.00,,,0.00,Weather View 32 v70,2013-05-24 03:53:00,
2013-05-23 20:58:00,64.6,0.0,29.98,SW,232,3.0,11.0,0,0.00,,,0.00,Weather View 32 v70,2013-05-24 03:58:00,
2013-05-23 21:01:00,64.6,0.0,29.98,WSW,256,1.0,11.0,0,0.00,,,0.00,Weather View 32 v70,2013-05-24 04:01:00,
2013-05-23 21:06:00,64.1,0.0,29.98,West,273,4.0,11.0,0,0.00,,,0.00,Weather View 32 v70,2013-05-24 04:06:00,
2013-05-23 21:11:00,63.9,0.0,29.98,WNW,284,3.0,11.0,0,0.00,,,0.00,Weather View 32 v70,2013-05-24 04:11:00,
2013-05-23 21:16:00,63.6,0.0,29.99,WSW,248,0.0,11.0,0,0.00,,,0.00,Weather View 32 v70,2013-05-24 04:16:00,
2013-05-23 21:21:00,63.1,0.0,29.99,WSW,248,0.0,11.0,0,0.00,,,0.00,Weather View 32 v70,2013-05-24 04:21:00,
2013-05-23 21:26:00,63.2,0.0,29.99,WSW,249,5.0,11.0,0,0.00,,,0.00,Weather View 32 v70,2013-05-24 04:26:00,
2013-05-23 21:31:00,63.3,0.0,29.99,SW,235,3.0,11.0,0,0.00,,,0.00,Weather View 32 v70,2013-05-24 04:31:00,
2013-05-23 21:36:00,63.0,0.0,30.00,WSW,238,2.0,10.0,0,0.00,,,0.00,Weather View 32 v70,2013-05-24 04:36:00,
2013-05-23 21:41:00,62.7,0.0,30.00,West,281,4.0,10.0,0,0.00,,,0.00,Weather View 32 v70,2013-05-24 04:41:00,
2013-05-23 21:46:00,62.7,0.0,30.00,WNW,297,3.0,9.0,0,0.00,,,0.00,Weather View 32 v70,2013-05-24 04:46:00,
2013-05-23 21:51:00,63.0,0.0,30.00,NW,305,5.0,10.0,0,0.00,,,0.00,Weather View 32 v70,2013-05-24 04:51:00,
2013-05-23 21:56:00,63.3,0.0,30.01,West,269,4.0,10.0,0,0.00,,,0.00,Weather View 32 v70,2013-05-24 04:56:00,
2013-05-23 22:01:00,62.9,0.0,30.01,WSW,242,2.0,10.0,0,0.00,,,0.00,Weather View 32 v70,2013-05-24 05:01:00,
2013-05-23 22:06:00,62.7,0.0,30.01,WSW,256,0.0,10.0,0,0.00,,,0.00,Weather View 32 v70,2013-05-24 05:06:00,
2013-05-23 22:12:00,62.4,0.0,30.01,WNW,291,2.0,10.0,0,0.00,,,0.00,Weather View 32 v70,2013-05-24 05:12:00,
2013-05-23 22:17:00,62.6,0.0,30.01,WNW,285,4.0,10.0,0,0.00,,,0.00,Weather View 32 v70,2013-05-24 05:17:00,
2013-05-23 22:22:00,62.6,0.0,30.01,WNW,284,3.0,10.0,0,0.00,,,0.00,Weather View 32 v70,2013-05-24 05:22:00,
2013-05-23 22:27:00,62.6,0.0,30.01,West,271,3.0,10.0,0,0.00,,,0.00,Weather View 32 v70,2013-05-24 05:27:00,
2013-05-23 22:32:00,62.8,0.0,30.01,West,280,5.0,10.0,0,0.00,,,0.00,Weather View 32 v70,2013-05-24 05:32:00,
2013-05-23 22:37:00,62.5,0.0,30.01,WNW,291,5.0,10.0,0,0.00,,,0.00,Weather View 32 v70,2013-05-24 05:37:00,
2013-05-23 22:42:00,62.1,0.0,30.01,NW,314,6.0,10.0,0,0.00,,,0.00,Weather View 32 v70,2013-05-24 05:42:00,
2013-05-23 22:47:00,61.9,0.0,30.01,West,278,2.0,10.0,0,0.00,,,0.00,Weather View 32 v70,2013-05-24 05:47:00,
2013-05-23 22:52:00,62.0,0.0,30.01,WNW,295,3.0,10.0,0,0.00,,,0.00,Weather View 32 v70,2013-05-24 05:52:00,
2013-05-23 22:57:00,61.9,0.0,30.01,NW,304,3.0,10.0,0,0.00,,,0.00,Weather View 32 v70,2013-05-24 05:57:00,
2013-05-23 23:02:00,62.0,0.0,30.01,WNW,284,7.0,10.0,0,0.00,,,0.00,Weather View 32 v70,2013-05-24 06:02:00,
2013-05-23 23:07:00,62.1,0.0,30.01,WNW,284,4.0,10.0,0,0.00,,,0.00,Weather View 32 v70,2013-05-24 06:07:00,
2013-05-23 23:12:00,61.8,0.0,30.01,WNW,284,2.0,10.0,0,0.00,,,0.00,Weather View 32 v70,2013-05-24 06:12:00,
2013-05-23 23:17:00,61.3,0.0,30.01,West,281,4.0,10.0,0,0.00,,,0.00,Weather View 32 v70,2013-05-24 06:17:00,
2013-05-23 23:22:00,61.2,0.0,30.01,West,277,3.0,10.0,0,0.00,,,0.00,Weather View 32 v70,2013-05-24 06:22:00,
2013-05-23 23:27:00,61.0,0.0,30.00,West,266,3.0,10.0,0,0.00,,,0.00,Weather View 32 v70,2013-05-24 06:27:00,
2013-05-23 23:32:00,60.9,0.0,30.00,West,273,3.0,10.0,0,0.00,,,0.00,Weather View 32 v70,2013-05-24 06:32:00,
2013-05-23 23:37:00,61.0,0.0,30.00,WNW,302,3.0,10.0,0,0.00,,,0.00,Weather View 32 v70,2013-05-24 06:37:00,
2013-05-23 23:42:00,60.7,0.0,30.00,West,271,4.0,10.0,0,0.00,,,0.00,Weather View 32 v70,2013-05-24 06:42:00,
2013-05-23 23:47:00,60.6,0.0,30.00,NW,304,2.0,10.0,0,0.00,,,0.00,Weather View 32 v70,2013-05-24 06:47:00,
2013-05-23 23:52:00,60.9,0.0,30.00,West,276,5.0,10.0,0,0.00,,,0.00,Weather View 32 v70,2013-05-24 06:52:00,
2013-05-23 23:57:00,61.2,0.0,30.00,West,267,3.0,10.0,0,0.00,,,0.00,Weather View 32 v70,2013-05-24 06:57:00,